Location: Presov
(49.0000°N, 21.2500°E)
Time: 02:04:26
(UTC+02:00)

Transit 4A - Visible Passes

Search period start: 19 April 2021 00:00
Search period end: 29 April 2021 00:00
Orbit: 869 x 975 km, 66.8° (Epoch: 18 April)

Date Brightness Start Highest point End Pass type
(mag) Time Alt. Az. Time Alt. Az. Time Alt. Az.
19 Apr 7.9 01:07:32 70° WNW 01:07:50 71° NW 01:13:56 10° NNE visible
19 Apr 9.7 02:51:00 12° WNW 02:55:15 23° NNW 03:00:00 10° NNE visible
19 Apr 10.2 04:40:52 10° NNW 04:43:58 14° N 04:47:02 10° NNE visible
19 Apr 9.0 23:32:41 31° E 23:32:41 31° E 23:36:33 10° NE visible
20 Apr 8.4 01:16:10 48° W 01:17:15 53° NW 01:23:12 10° NNE visible
20 Apr 9.9 03:00:39 10° WNW 03:05:00 20° NNW 03:09:16 10° NNE visible
20 Apr 10.3 04:50:45 10° NNW 04:53:52 14° N 04:56:57 10° NE visible
20 Apr 8.4 23:41:14 46° E 23:41:14 46° E 23:46:05 10° NE visible
21 Apr 8.8 01:24:43 32° W 01:26:44 41° NW 01:32:28 10° NNE visible
21 Apr 10.1 03:10:55 10° WNW 03:14:48 17° NNW 03:18:37 10° NNE visible
21 Apr 9.9 22:06:16 12° E 22:06:16 12° E 22:07:01 10° ENE visible
21 Apr 7.8 23:49:44 70° E 23:49:44 70° E 23:55:30 10° NE visible
22 Apr 9.3 01:33:11 21° W 01:36:18 32° NW 01:41:41 10° NNE visible
22 Apr 10.3 03:21:11 10° NW 03:24:38 15° NNW 03:28:03 10° NNE visible
22 Apr 9.4 22:14:40 18° E 22:14:40 18° E 22:17:23 10° ENE visible
22 Apr 7.8 23:58:07 74° SW 23:58:44 86° NW 00:04:51 10° NE visible
23 Apr 9.6 01:41:34 13° W 01:45:56 26° NNW 01:50:56 10° NNE visible
23 Apr 10.3 03:31:21 10° NW 03:34:31 14° N 03:37:39 10° NNE visible
23 Apr 8.9 22:22:56 28° E 22:22:56 28° E 22:27:15 10° NE visible
24 Apr 8.2 00:06:23 46° WSW 00:08:06 64° NW 00:14:09 10° NNE visible
24 Apr 9.9 01:51:00 10° WNW 01:55:38 22° NNW 02:00:11 10° NNE visible
24 Apr 10.4 03:41:21 10° NNW 03:44:24 14° N 03:47:26 10° NNE visible
24 Apr 8.3 22:31:04 41° ESE 22:31:13 41° ESE 22:36:52 10° NE visible
25 Apr 8.6 00:14:29 27° WSW 00:17:33 48° NW 00:23:24 10° NNE visible
25 Apr 10.2 02:01:15 10° WNW 02:05:24 18° NNW 02:09:29 10° NNE visible
25 Apr 10.4 03:51:09 10° NNW 03:54:18 14° N 03:57:25 10° NE visible
25 Apr 9.8 20:55:33 10° E 20:55:33 10° E 20:55:56 10° E visible
25 Apr 7.9 22:38:58 46° SSE 22:40:25 57° ESE 22:46:21 10° NE visible
26 Apr 9.1 00:22:22 15° WSW 00:27:03 37° NW 00:32:39 10° NNE visible
26 Apr 10.4 02:11:31 10° NW 02:15:13 16° NNW 02:18:51 10° NNE visible
26 Apr 10.4 04:00:45 10° NNW 04:04:10 15° NNE 04:07:33 10° NE visible
26 Apr 9.3 21:03:07 15° ESE 21:04:12 16° ESE 21:07:43 10° ENE visible
26 Apr 7.8 22:46:30 31° SSW 22:49:39 79° ESE 22:55:45 10° NE visible
27 Apr 9.6 00:31:18 10° W 00:36:39 30° NW 00:41:53 10° NNE visible
27 Apr 10.4 02:21:45 10° NW 02:25:04 15° N 02:28:21 10° NNE visible
27 Apr 10.4 04:10:12 10° NNW 04:14:00 17° NNE 04:17:46 10° ENE visible
27 Apr 9.0 21:10:05 16° SE 21:13:12 23° ESE 21:17:51 10° ENE visible
27 Apr 8.0 22:53:23 13° SW 22:58:59 77° NW 23:05:04 10° NE visible
28 Apr 9.9 00:41:23 10° W 00:46:18 24° NNW 00:51:08 10° NNE visible
28 Apr 10.5 02:31:52 10° NW 02:34:57 14° N 02:38:00 10° NNE visible
28 Apr 10.4 04:19:33 10° NNW 04:23:48 20° NNE 04:27:59 10° ENE visible
28 Apr 8.5 21:16:50 10° S 21:22:16 33° ESE 21:27:36 10° NE visible
28 Apr 8.4 23:02:16 10° SW 23:08:23 58° NW 23:14:21 10° NNE visible
